Find Starlink 34267

NORAD ID: 65080 Int'l Des: 2025-167 Owner: SPXS Country: US Constellation: starlink operational
LEOCIRCULAR

現在のビュー

3D地球を読み込み中...

About Starlink 34267

Starlink 34267 (NORAD 65080) is a starlink constellation satellite (v2 mini) launched Aug 4, 2025 by SPXS of US. It operates in LEO, CIRCULAR orbit with a mass of 575.00 kg.

次回通過

Passes for default location (London). Set your location on the main map for personalized predictions.

高度履歴

Loading altitude history...

軌道要素

1 65080U 25167C 26237.22883341 .00023698 00000-0 70971-3 0 9996
2 65080 53.1616 318.2083 0000981 85.8056 274.3058 15.34426232 60588
Epoch: Aug 25, 2026 • Age: 10 hours

現在のステータス

高度 467.0 km
遠地点 / 近地点 N/A
速度 7.63 km/s
衛星直下点 -15.48°S, 61.84°W
打ち上げ日 Aug 4, 2025
運用期間 1 year
タイプ internet

技術仕様

分類 Payload
質量 575.00 kg
乾燥質量 530.00 kg
総質量 575.00 kg
長さ 0.30 m
直径 4.10 m
スパン 29.00 m
形状 Box + pan
製造者 SPXS
バスタイプ Starlink V2MO
フェーズステータス In Orbit
所有者/国 SPXS/US

Most Searched